JR6GUC-13 Weather Reports


time (UTC)temp
C
wind
direction
speed
KPH
gust
KPH
rain 1hr
cm
rain 24hr
cm
rain mn
cm
humidity
%
barometer
mb
20260504110529 17 53 16.1 0.0 0.00 0.00 0.00 41 1013.3
20260504100537 17 326 14.5 0.0 0.00 0.00 0.00 40 1012.7
20260504081608 17 323 19.3 0.0 0.00 0.00 0.00 42 1012.0
20260504081051 17 323 20.9 0.0 0.00 0.00 0.00 41 1012.0
20260504080557 17 310 19.3 0.0 0.00 0.00 0.00 41 1011.9
20260504080104 17 336 20.9 0.0 0.00 0.00 0.00 43 1011.9
20260504050604 17 307 27.4 0.0 0.00 0.00 0.00 52 1012.1
20260504045553 17 305 25.7 0.0 0.00 0.00 0.00 54 1012.1
20260504045035 17 328 27.4 0.0 0.00 0.00 0.00 54 1011.8
20260504044541 17 349 27.4 0.0 0.00 0.00 0.00 55 1011.8
20260504044030 17 353 24.1 0.0 0.00 0.00 0.00 54 1011.8
20260504043535 17 346 22.5 0.0 0.00 0.00 0.00 54 1011.7
20260504043042 17 311 24.1 0.0 0.00 0.00 0.00 56 1011.7
20260504042529 17 299 24.1 0.0 0.00 0.00 0.00 52 1011.7
20260504042030 17 347 24.1 0.0 0.00 0.00 0.00 56 1011.8
20260504041537 17 323 27.4 0.0 0.00 0.00 0.00 55 1011.8
20260504041104 17 360 25.7 0.0 0.00 0.00 0.00 56 1011.8
20260504040527 17 298 24.1 0.0 0.00 0.00 0.00 58 1011.8
20260504040035 17 360 25.7 0.0 0.00 0.00 0.00 59 1011.8
20260504035543 17 349 27.4 0.0 0.00 0.00 0.00 56 1011.8
20260504035049 17 305 25.7 0.0 0.00 0.00 0.00 59 1011.8
20260504034536 17 335 25.7 0.0 0.00 0.00 0.00 56 1011.8
20260504034039 17 345 27.4 0.0 0.00 0.00 0.00 59 1011.8
20260504033542 17 320 29.0 0.0 0.00 0.00 0.00 55 1011.8
20260504033029 17 347 29.0 0.0 0.00 0.00 0.00 58 1011.8
20260504032537 17 281 29.0 0.0 0.00 0.00 0.00 59 1011.8
20260504032041 17 327 29.0 0.0 0.00 0.00 0.00 59 1011.8
20260504031526 17 309 29.0 0.0 0.00 0.00 0.00 58 1011.8
20260504031033 17 358 30.6 0.0 0.00 0.00 0.00 61 1011.8
20260504030554 17 330 29.0 0.0 0.00 0.00 0.00 59 1011.7
20260504030100 17 8 25.7 0.0 0.00 0.00 0.00 61 1011.7
20260504025554 17 335 27.4 0.0 0.00 0.00 0.00 61 1011.7
20260504025030 17 311 27.4 0.0 0.00 0.00 0.00 61 1011.6
20260504024536 17 309 27.4 0.0 0.00 0.00 0.00 60 1011.6
20260504024051 17 343 27.4 0.0 0.00 0.00 0.00 63 1011.6
20260504023555 17 360 27.4 0.0 0.00 0.00 0.00 62 1011.6
20260504023042 17 349 27.4 0.0 0.00 0.00 0.00 61 1011.6
20260504022544 17 311 25.7 0.0 0.00 0.00 0.00 61 1011.6
20260504022048 18 316 22.5 0.0 0.00 0.00 0.00 62 1011.3
20260504021552 17 326 22.5 0.0 0.00 0.00 0.00 64 1011.3
20260504021038 17 356 24.1 0.0 0.00 0.00 0.00 64 1011.3
20260504020542 17 320 25.7 0.0 0.00 0.00 0.00 62 1011.2
20260504020110 17 344 30.6 0.0 0.00 0.00 0.00 62 1011.2
20260504015535 17 330 29.0 0.0 0.00 0.00 0.00 62 1011.2
20260504015035 17 337 29.0 0.0 0.00 0.00 0.00 62 1011.3
20260504014543 17 344 30.6 0.0 0.00 0.00 0.00 65 1011.3
20260504014030 17 354 27.4 0.0 0.00 0.00 0.00 63 1011.3
20260504013532 17 333 25.7 0.0 0.00 0.00 0.00 62 1011.5
20260504013038 17 342 29.0 0.0 0.00 0.00 0.00 62 1011.5
20260504012544 17 340 30.6 0.0 0.00 0.00 0.00 62 1011.4
20260504012051 17 304 30.6 0.0 0.00 0.00 0.00 62 1011.7
20260504011536 17 360 29.0 0.0 0.00 0.00 0.00 62 1011.7
20260504011038 17 310 29.0 0.0 0.00 0.00 0.00 62 1011.7
20260504010539 17 338 30.6 0.0 0.00 0.00 0.00 64 1011.3
20260504010104 17 299 29.0 0.0 0.00 0.00 0.00 64 1011.3
20260504005550 17 338 25.7 0.0 0.00 0.00 0.00 63 1011.3
20260504005055 17 360 29.0 0.0 0.00 0.00 0.00 63 1011.3
20260504004602 17 356 30.6 0.0 0.00 0.00 0.00 64 1011.3
20260504004047 17 299 29.0 0.0 0.00 0.00 0.00 62 1011.3
20260504003606 17 331 29.0 0.0 0.00 0.00 0.00 65 1011.3
20260504003053 17 325 29.0 0.0 0.00 0.00 0.00 64 1011.3
20260504002535 17 310 27.4 0.0 0.00 0.00 0.00 63 1011.3
20260504002037 17 347 27.4 0.0 0.00 0.00 0.00 66 1011.1
20260504001542 17 325 27.4 0.0 0.00 0.00 0.00 68 1011.1
20260504001057 17 319 24.1 0.0 0.00 0.00 0.00 68 1011.1
20260504000551 17 325 24.1 0.0 0.00 0.00 0.00 67 1010.6
20260504000032 17 328 25.7 0.0 0.00 0.00 0.00 66 1010.6
20260503235608 17 304 29.0 0.0 0.00 0.00 0.00 64 1010.6
20260503235050 17 316 27.4 0.0 0.00 0.00 0.00 62 1010.7
20260503234529 18 317 27.4 0.0 0.00 0.00 0.00 63 1010.7
20260503234043 18 330 29.0 0.0 0.00 0.00 0.00 59 1010.7
20260503233546 18 310 29.0 0.0 0.00 0.00 0.00 58 1010.3
20260503233053 17 321 25.7 0.0 0.00 0.00 0.00 59 1010.3
20260503232538 18 304 24.1 0.0 0.00 0.00 0.00 57 1010.3
20260503232037 18 321 29.0 0.0 0.00 0.00 0.00 59 1009.7
20260503231544 18 353 29.0 0.0 0.00 0.00 0.00 62 1009.7
20260503231052 18 325 24.1 0.0 0.00 0.00 0.00 66 1009.7
20260503230534 18 358 24.1 0.0 0.00 0.00 0.00 67 1009.5
20260503230041 18 306 24.1 0.0 0.00 0.00 0.00 68 1009.5
20260503225529 18 333 22.5 0.0 0.00 0.00 0.00 65 1009.5
20260503225032 18 327 22.5 0.0 0.00 0.00 0.00 63 1009.2
20260503224535 18 309 24.1 0.0 0.00 0.00 0.00 62 1009.2
20260503224040 18 316 25.7 0.0 0.00 0.00 0.00 61 1009.2
20260503223545 18 332 24.1 0.0 0.00 0.00 0.00 61 1009.0
20260503223030 18 330 22.5 0.0 0.00 0.00 0.00 63 1009.0
20260503222536 18 299 20.9 0.0 0.00 0.00 0.00 63 1009.0
20260503222039 18 313 20.9 0.0 0.00 0.00 0.00 65 1008.7
20260503221541 18 358 20.9 0.0 0.00 0.00 0.00 65 1008.7
20260503221042 18 307 20.9 0.0 0.00 0.00 0.00 66 1008.7
20260503220544 18 298 17.7 0.0 0.00 0.00 0.00 65 1008.2
20260503220030 17 319 17.7 0.0 0.00 0.00 0.00 65 1008.2
20260503215555 17 320 19.3 0.0 0.00 0.00 0.00 64 1008.2
20260503215037 17 314 19.3 0.0 0.00 0.00 0.00 65 1007.8
20260503214543 17 281 20.9 0.0 0.00 0.00 0.00 66 1007.8
20260503214050 17 297 20.9 0.0 0.00 0.00 0.00 65 1007.8
20260503213554 17 309 20.9 0.0 0.00 0.00 0.00 65 1007.7
20260503213036 17 307 20.9 0.0 0.00 0.00 0.00 65 1007.7
20260503212611 17 312 22.5 0.0 0.00 0.00 0.00 65 1007.7
20260503212053 17 326 22.5 0.0 0.00 0.00 0.00 65 1007.4
20260503211529 17 345 20.9 0.0 0.00 0.00 0.00 67 1007.4
20260503211041 17 333 19.3 0.0 0.00 0.00 0.00 70 1007.4
20260503210545 17 309 14.5 0.0 0.00 0.00 0.00 72 1007.2
20260503210053 17 333 14.5 0.0 0.00 0.00 0.00 76 1007.2
20260503205534 17 275 19.3 0.0 0.00 0.00 0.00 79 1007.2
20260503205033 17 311 20.9 0.0 0.00 0.00 0.00 78 1007.2
20260503204601 17 321 19.3 0.0 0.00 0.00 0.00 79 1007.2
20260503204044 17 358 19.3 0.0 0.00 0.00 0.00 79 1007.2
20260503203606 17 319 19.3 0.0 0.00 0.00 0.00 79 1006.7
20260503203054 17 324 19.3 0.0 0.00 0.00 0.00 80 1006.7
20260503202539 17 321 19.3 0.0 0.00 0.00 0.00 79 1006.7
20260503202040 17 335 19.3 0.0 0.00 0.00 0.00 79 1006.7
20260503201545 18 350 19.3 0.0 0.00 0.00 0.00 76 1006.7
20260503201032 18 283 19.3 0.0 0.00 0.00 0.00 70 1006.7
20260503200535 18 324 19.3 0.0 0.00 0.00 0.00 70 1006.6
20260503200041 18 277 19.3 0.0 0.00 0.00 0.00 71 1006.6
20260503195530 18 314 16.1 0.0 0.00 0.00 0.00 72 1006.6
20260503195035 18 311 17.7 0.0 0.00 0.00 0.00 73 1006.6
20260503194543 18 315 17.7 0.0 0.00 0.00 0.00 73 1006.6
20260503194108 18 307 16.1 0.0 0.00 0.00 0.00 73 1006.6
20260503193552 18 305 17.7 0.0 0.00 0.00 0.00 73 1006.3
20260503193039 18 280 17.7 0.0 0.00 0.00 0.00 74 1006.3
20260503192546 18 278 19.3 0.0 0.00 0.00 0.00 73 1006.3
20260503192029 18 308 20.9 0.0 0.00 0.00 0.00 73 1005.9
20260503191537 18 320 19.3 0.0 0.00 0.00 0.00 73 1005.9
20260503191045 18 310 19.3 0.0 0.00 0.00 0.00 73 1005.9
20260503190529 18 296 19.3 0.0 0.00 0.00 0.00 72 1005.9
20260503190033 18 300 20.9 0.0 0.00 0.00 0.00 71 1005.9
20260503185540 18 316 22.5 0.0 0.00 0.00 0.00 71 1005.9
20260503185106 18 320 22.5 0.0 0.00 0.00 0.00 73 1005.8
20260503184531 18 276 22.5 0.0 0.00 0.00 0.00 73 1005.8
20260503184038 18 326 19.3 0.0 0.00 0.00 0.00 72 1005.8
20260503183543 18 320 17.7 0.0 0.00 0.00 0.00 73 1006.1
20260503183032 18 314 17.7 0.0 0.00 0.00 0.00 73 1006.1
20260503182536 18 323 17.7 0.0 0.00 0.00 0.00 73 1006.1
20260503182040 18 330 19.3 0.0 0.00 0.00 0.00 73 1005.6
20260503181528 18 328 20.9 0.0 0.00 0.00 0.00 71 1005.6
20260503181055 18 314 20.9 0.0 0.00 0.00 0.00 72 1005.6
20260503180538 18 325 20.9 0.0 0.00 0.00 0.00 73 1005.6
20260503180047 18 288 24.1 0.0 0.00 0.00 0.00 73 1005.6
20260503175532 18 311 22.5 0.0 0.00 0.00 0.00 73 1005.6
20260503175036 18 293 24.1 0.0 0.00 0.00 0.00 76 1005.6
20260503174601 18 347 24.1 0.0 0.00 0.00 0.00 77 1005.6
20260503174046 18 314 20.9 0.0 0.00 0.00 0.00 78 1005.6
20260503173530 18 288 16.1 0.0 0.00 0.00 0.00 79 1005.6
20260503173036 18 328 14.5 0.0 0.00 0.00 0.00 79 1005.6
20260503172552 18 311 19.3 0.0 0.00 0.00 0.00 79 1005.6
20260503172027 18 319 22.5 0.0 0.00 0.00 0.00 79 1005.6
20260503171533 18 313 20.9 0.0 0.00 0.00 0.00 77 1005.6
20260503171037 18 315 17.7 0.0 0.00 0.00 0.00 77 1005.6
20260503170548 18 332 12.9 0.0 0.00 0.00 0.00 78 1005.8
20260503150536 18 329 12.9 0.0 0.00 0.00 3.53 81 1005.4
20260503131035 18 285 11.3 0.0 0.00 0.00 3.53 87 1005.4
20260503130539 18 303 8.0 0.0 0.00 0.00 3.53 87 1005.1